Coatesville, PA

4:21 AM EST on November 18, 2019 (GMT -0500)
Chester County Carlson

Weather History for KMQS - September, 2019

Change the Weather History Date:

Friday, September 6, 2019

  Actual Average (WUND) Record (WUND)
Temperature  
Mean Temperature 62 °F -  
Max Temperature 66 °F - - (-1)
Min Temperature 57 °F - - (-1)
Degree Days  
Heating Degree Days 4    
Growing Degree Days 12 (Base 50)    
Moisture  
Dew Point 58 °F    
Average Humidity 85    
Maximum Humidity 94    
Minimum Humidity 73    
Precipitation  
Precipitation 0.00 in - - ()
Sea Level Pressure  
Sea Level Pressure 29.89 in    
Wind  
Wind Speed 4 mph ()    
Max Wind Speed 10 mph    
Max Gust Speed 17 mph    
Visibility 10.0 miles    
Events      
Averages and records for this station are not official NWS values.
T = Trace of Precipitation, MM = Missing Value Source: Averaged Metar Reports

Daily Weather History Graph

Daily Weather History Graph

Search for Another Location

Airport or City:

Astronomy

Sep. 06, 2019 Rise Set
Actual Time 6:35 AM EDT 7:27 PM EDT
Civil Twilight 6:08 AM EDT 7:54 PM EDT
Nautical Twilight 5:35 AM EDT 8:27 PM EDT
Astronomical Twilight 5:01 AM EDT 9:01 PM EDT
Moon 2:41 PM EDT (9/6) No Moon Set
Length of Visible Light 13h 46m
Length of Day
12h 51m
First Quarter, 55% of the Moon is Illuminated
Sep 6
First Quarter
Sep 14
Full
Sep 21
Last Quarter
Sep 28
New
Oct 5
First Quarter

Hourly Weather History & Observations

Time (EDT) Temp. Dew Point Humidity Pressure Visibility Wind Dir Wind Speed Gust Speed Precip Events Conditions
12:15 AM 64.4 °F 59.0 °F 83% 30.02 in 10.0 mi Calm Calm - N/A   Clear
12:35 AM 62.6 °F 59.0 °F 88% 30.02 in 10.0 mi Calm Calm - N/A   Clear
12:55 AM 62.6 °F 59.0 °F 88% 30.02 in 10.0 mi Calm Calm - N/A   Clear
1:15 AM 62.6 °F 59.0 °F 88% 30.01 in 10.0 mi Calm Calm - N/A   Clear
1:35 AM 62.6 °F 59.0 °F 88% 30.01 in 10.0 mi Calm Calm - N/A   Clear
1:55 AM 62.6 °F 59.0 °F 88% 30.00 in 10.0 mi Calm Calm - N/A   Clear
2:15 AM 62.6 °F 59.0 °F 88% 30.01 in 10.0 mi Calm Calm - N/A   Clear
2:35 AM 60.8 °F 59.0 °F 94% 30.00 in 10.0 mi Calm Calm - N/A   Clear
2:55 AM 60.8 °F 59.0 °F 94% 29.99 in 10.0 mi Calm Calm - N/A   Clear
3:15 AM 60.8 °F 59.0 °F 94% 29.99 in 10.0 mi NNE 3.5 mph - N/A   Partly Cloudy
3:35 AM 60.8 °F 59.0 °F 94% 29.98 in 10.0 mi NE 3.5 mph - N/A   Mostly Cloudy
3:55 AM 62.6 °F 59.0 °F 88% 29.97 in 10.0 mi NE 3.5 mph - N/A   Mostly Cloudy
4:15 AM 60.8 °F 59.0 °F 94% 29.97 in 10.0 mi NNE 4.6 mph - N/A   Mostly Cloudy
4:35 AM 60.8 °F 59.0 °F 94% 29.98 in 10.0 mi NE 4.6 mph - N/A   Overcast
4:55 AM 60.8 °F 59.0 °F 94% 29.97 in 10.0 mi Calm Calm - N/A   Overcast
5:15 AM 60.8 °F 59.0 °F 94% 29.96 in 10.0 mi NNE 6.9 mph - N/A   Overcast
5:35 AM 60.8 °F 59.0 °F 94% 29.96 in 10.0 mi NNE 4.6 mph - N/A   Overcast
5:55 AM 60.8 °F 59.0 °F 94% 29.95 in 10.0 mi NNE 5.8 mph - N/A   Overcast
6:15 AM 60.8 °F 59.0 °F 94% 29.95 in 10.0 mi NNE 6.9 mph - N/A   Overcast
6:35 AM 60.8 °F 59.0 °F 94% 29.95 in 10.0 mi ENE 4.6 mph - N/A   Overcast
6:55 AM 62.6 °F 59.0 °F 88% 29.94 in 10.0 mi NE 4.6 mph 12.7 mph N/A   Overcast
7:15 AM 60.8 °F 57.2 °F 88% 29.94 in 10.0 mi NE 4.6 mph 12.7 mph N/A   Scattered Clouds
7:35 AM 60.8 °F 57.2 °F 88% 29.94 in 10.0 mi ENE 5.8 mph 13.8 mph N/A   Clear
7:55 AM 60.8 °F 57.2 °F 88% 29.93 in 10.0 mi NE 4.6 mph 12.7 mph N/A   Mostly Cloudy
8:15 AM 60.8 °F 57.2 °F 88% 29.93 in 10.0 mi NNE 6.9 mph - N/A   Scattered Clouds
8:35 AM 62.6 °F 57.2 °F 82% 29.93 in 10.0 mi NNE 9.2 mph - N/A   Clear
8:55 AM 62.6 °F 57.2 °F 82% 29.92 in 10.0 mi NE 6.9 mph 12.7 mph N/A   Clear
9:15 AM 62.6 °F 57.2 °F 82% 29.91 in 10.0 mi NE 5.8 mph 12.7 mph N/A   Partly Cloudy
9:35 AM 62.6 °F 57.2 °F 82% 29.91 in 10.0 mi NE 5.8 mph 12.7 mph N/A   Partly Cloudy
9:55 AM 62.6 °F 57.2 °F 82% 29.91 in 10.0 mi NE 6.9 mph 12.7 mph N/A   Scattered Clouds
10:15 AM 62.6 °F 57.2 °F 82% 29.90 in 10.0 mi NE 4.6 mph - N/A   Mostly Cloudy
10:35 AM 62.6 °F 57.2 °F 82% 29.90 in 10.0 mi NE 6.9 mph 15.0 mph N/A   Overcast
10:55 AM 64.4 °F 59.0 °F 83% 29.89 in 10.0 mi NE 6.9 mph 16.1 mph N/A   Overcast
11:15 AM 62.6 °F 59.0 °F 88% 29.89 in 10.0 mi NNE 8.1 mph 15.0 mph N/A   Overcast
11:35 AM 64.4 °F 59.0 °F 83% 29.89 in 10.0 mi NNE 9.2 mph - N/A   Overcast
11:55 AM 64.4 °F 59.0 °F 83% 29.89 in 10.0 mi NE 6.9 mph 13.8 mph N/A   Unknown
12:15 PM 64.4 °F 59.0 °F 83% 29.88 in 10.0 mi NNE 5.8 mph 13.8 mph N/A   Overcast
12:35 PM 64.4 °F 59.0 °F 83% 29.88 in 10.0 mi NE 4.6 mph 11.5 mph N/A   Overcast
12:55 PM 64.4 °F 59.0 °F 83% 29.87 in 10.0 mi NE 5.8 mph 13.8 mph N/A   Overcast
1:15 PM 64.4 °F 59.0 °F 83% 29.85 in 10.0 mi NE 6.9 mph 13.8 mph N/A   Overcast
1:35 PM 64.4 °F 59.0 °F 83% 29.85 in 10.0 mi Variable 5.8 mph 12.7 mph N/A   Overcast
1:55 PM 64.4 °F 59.0 °F 83% 29.84 in 10.0 mi NE 5.8 mph 15.0 mph N/A   Overcast
2:15 PM 66.2 °F 59.0 °F 78% 29.83 in 10.0 mi NNE 8.1 mph - N/A   Overcast
2:35 PM 66.2 °F 59.0 °F 78% 29.81 in 10.0 mi NE 4.6 mph - N/A   Overcast
2:55 PM 64.4 °F 59.0 °F 83% 29.81 in 8.0 mi NE 5.8 mph 12.7 mph N/A   Overcast
3:15 PM 64.4 °F 59.0 °F 83% 29.81 in 10.0 mi NNE 5.8 mph 12.7 mph N/A   Overcast
3:35 PM 64.4 °F 59.0 °F 83% 29.80 in 10.0 mi NNE 8.1 mph - N/A   Overcast
3:55 PM 64.4 °F 59.0 °F 83% 29.81 in 10.0 mi North 8.1 mph 15.0 mph N/A   Overcast
4:15 PM 64.4 °F 57.2 °F 77% 29.81 in 10.0 mi NNE 9.2 mph 15.0 mph N/A   Overcast
4:35 PM 64.4 °F 57.2 °F 77% 29.81 in 10.0 mi North 6.9 mph 13.8 mph N/A   Overcast
4:55 PM 64.4 °F 57.2 °F 77% 29.82 in 10.0 mi North 9.2 mph - N/A   Overcast
5:15 PM 64.4 °F 57.2 °F 77% 29.82 in 10.0 mi NNE 9.2 mph 17.3 mph N/A   Overcast
5:35 PM 64.4 °F 57.2 °F 77% 29.82 in 10.0 mi North 8.1 mph 15.0 mph N/A   Overcast
5:55 PM 64.4 °F 57.2 °F 77% 29.82 in 10.0 mi North 10.4 mph 17.3 mph N/A   Overcast
6:15 PM 64.4 °F 57.2 °F 77% 29.82 in 10.0 mi NNE 6.9 mph 15.0 mph N/A   Overcast
6:35 PM 64.4 °F 57.2 °F 77% 29.82 in 10.0 mi North 6.9 mph 13.8 mph N/A   Overcast
6:55 PM 64.4 °F 55.4 °F 73% 29.82 in 10.0 mi North 9.2 mph - N/A   Overcast
7:15 PM 64.4 °F 55.4 °F 73% 29.83 in 10.0 mi North 8.1 mph - N/A   Overcast
7:55 PM 62.6 °F 55.4 °F 77% 29.83 in 10.0 mi North 5.8 mph - N/A   Mostly Cloudy
8:15 PM 62.6 °F 55.4 °F 77% 29.83 in 10.0 mi North 4.6 mph - N/A   Mostly Cloudy
8:35 PM 62.6 °F 55.4 °F 77% 29.84 in 10.0 mi North 6.9 mph - N/A   Overcast
8:55 PM 62.6 °F 55.4 °F 77% 29.85 in 10.0 mi North 5.8 mph - N/A   Overcast
9:15 PM 62.6 °F 55.4 °F 77% 29.84 in 10.0 mi NNE 5.8 mph 11.5 mph N/A   Overcast
9:35 PM 60.8 °F 55.4 °F 82% 29.83 in 10.0 mi NNE 8.1 mph - N/A   Overcast
9:55 PM 60.8 °F 55.4 °F 82% 29.83 in 10.0 mi NNE 4.6 mph - N/A   Overcast
10:15 PM 59.0 °F 55.4 °F 88% 29.82 in 10.0 mi Calm Calm - N/A   Mostly Cloudy
10:35 PM 59.0 °F 55.4 °F 88% 29.82 in 10.0 mi NNE 3.5 mph - N/A   Partly Cloudy
10:55 PM 59.0 °F 55.4 °F 88% 29.83 in 10.0 mi North 5.8 mph - N/A   Partly Cloudy
11:15 PM 57.2 °F 53.6 °F 88% 29.83 in 10.0 mi North 5.8 mph - N/A   Clear
11:35 PM 57.2 °F 53.6 °F 88% 29.83 in 10.0 mi North 6.9 mph - N/A   Clear
11:55 PM 57.2 °F 53.6 °F 88% 29.83 in 10.0 mi North 6.9 mph - N/A   Clear